(221207) = 2005 UD74

Discovered at Palomar on 2005-10-23 by NEAT.

Orbit

Orbit type: Main Belt

Note: WebGL enabled browser required.

epoch2023-09-13.0
epoch JD2460200.5
perihelion date2019-05-21.61449
perihelion JD2458625.11449
argument of perihelion (°)208.81719
ascending node (°)201.16395
inclination (°)4.65999
eccentricity0.1114599
perihelion distance (AU)2.4341667
Tisserand w.r.t. Jupiter3.3
ΔV w.r.t. Earth (km/sec)9.9
semimajor axis (AU)2.7395124
mean anomaly (°)342.43708
mean daily motion (°/day)0.21736720
aphelion distance (AU)3.045
period (years)4.53
P-vector [x]0.64361499
P-vector [y]0.71685163
P-vector [z]0.26811094
Q-vector [x]-0.76478716
Q-vector [y]0.61581378
Q-vector [z]0.18940431
absolute magnitude16.18
phase slope0.15
uncertainty0
referenceMPEC 2024-A141
observations used508
oppositions16
arc length (days)8507
first opposition used2000
last opposition used2024
residual rms (arc-secs)0.74
perturbers coarse indicatorM-v
perturbers precise indicator003Ek
first observation date used2000-09-26.0
last observation date used2024-01-11.0
computer nameMPCLINUX
JD of orbit computation2456966.908029
perihelion JD uncertainty (days)8.5118E-05
argument of perihelion uncertainty (°)5.3881E-05
ascending node uncertainty (°)5.0393E-05
inclination uncertainty (°)6.7172E-06
eccentricity uncertainty 6.0559E-08
perihelion distance uncertainty (AU)1.6863E-07
Minimum Orbit Intersection Distances (in AU)
for orbit epoch: 2460200.5, reference: E2024-AE1
Mercury2.11717
Venus1.71155
Earth1.44446
Mars0.9354
Jupiter2.30697
Saturn6.51592
Uranus15.5482
Neptune27.3629

Observations

524 total observations over interval: 2000 09 26.35075 – 2024 01 11.131873
These data are available for download (format description).

Date (UT) J2000 RA J2000 Dec Magn Location Ref
2000 09 26.35075 23 39 47.36 +01 02 58.6 20.1   608 – Haleakala-AMOS MPS 163857
2000 09 26.36137 23 39 46.90 +01 02 54.5 20.1   608 – Haleakala-AMOS MPS 163857
2000 09 26.37220 23 39 46.40 +01 02 49.5 20.2   608 – Haleakala-AMOS MPS 163857
2003 04 26.31414 14 20 22.31 -12 05 59.2 20.6 V 691 – Steward Observatory, Kitt Peak-Spacewatch MPS 161830
2003 04 26.34092 14 20 20.93 -12 05 50.4 20.6 V 691 – Steward Observatory, Kitt Peak-Spacewatch MPS 161830
2003 04 26.36853 14 20 19.53 -12 05 41.5 20.8 V 691 – Steward Observatory, Kitt Peak-Spacewatch MPS 161830
2003 05 22.18397 14 01 11.40 -09 57 51.7 21.5 V 691 – Steward Observatory, Kitt Peak-Spacewatch MPS 161830
2003 05 22.21225 14 01 10.38 -09 57 45.2 22.0 V 691 – Steward Observatory, Kitt Peak-Spacewatch MPS 161830
2003 05 22.24025 14 01 09.33 -09 57 39.1 22.4 V 691 – Steward Observatory, Kitt Peak-Spacewatch MPS 161830
2003 06 05.16935 13 54 56.78 -09 14 50.4 22.0 V 691 – Steward Observatory, Kitt Peak-Spacewatch MPS 161830
2003 06 05.19581 13 54 56.27 -09 14 45.9 22.5 V 691 – Steward Observatory, Kitt Peak-Spacewatch MPS 161830
2003 06 05.22253 13 54 55.74 -09 14 43.1 21.9 V 691 – Steward Observatory, Kitt Peak-Spacewatch MPS 161830
2004 07 18.28803 20 03 42.86 -13 03 02.6 20.4   704 – Lincoln Laboratory ETS, New Mexico MPS 161830
2004 07 18.29828 20 03 42.18 -13 03 04.2 20.8   704 – Lincoln Laboratory ETS, New Mexico MPS 161830
2004 07 18.30886 20 03 41.61 -13 03 05.2 20.5   704 – Lincoln Laboratory ETS, New Mexico MPS 161830
2004 07 18.31942 20 03 41.05 -13 03 07.1 20.6   704 – Lincoln Laboratory ETS, New Mexico MPS 161830
2005 10 23.35489 04 17 31.68 +17 37 17.5 19.9 R 644 – Palomar Mountain/NEAT MPS 147888
2005 10 23.38036 04 17 31.01 +17 37 11.9 19.9 R 644 – Palomar Mountain/NEAT MPS 147888
2005 10 23.40797 04 17 30.26 +17 37 05.1 19.8 R 644 – Palomar Mountain/NEAT MPS 147888
2005 10 24.43494 04 17 03.65 +17 33 04.0 19.7 V 691 – Steward Observatory, Kitt Peak-Spacewatch MPS 147888
2005 10 24.45238 04 17 03.15 +17 32 59.9 19.7 V 691 – Steward Observatory, Kitt Peak-Spacewatch MPS 147888
2005 10 24.46976 04 17 02.65 +17 32 55.6 19.7 V 691 – Steward Observatory, Kitt Peak-Spacewatch MPS 147888
2005 10 28.35882 04 15 06.22 +17 17 04.3 19.7 V 691 – Steward Observatory, Kitt Peak-Spacewatch MPS 147888
2005 10 28.37632 04 15 05.60 +17 16 59.8 19.7 V 691 – Steward Observatory, Kitt Peak-Spacewatch MPS 147888
2005 10 28.39377 04 15 04.98 +17 16 55.4 19.7 V 691 – Steward Observatory, Kitt Peak-Spacewatch MPS 147888
2005 10 30.36087 04 13 56.75 +17 08 32.8 19.7 R 644 – Palomar Mountain/NEAT MPS 147888
2005 10 30.38269 04 13 55.92 +17 08 27.3 20.0 R 644 – Palomar Mountain/NEAT MPS 147888
2005 10 30.40616 04 13 55.02 +17 08 21.7 20.3 R 644 – Palomar Mountain/NEAT MPS 147888
2005 11 01.37576 04 12 40.71 +16 59 45.6 18.9 V G96 – Mt. Lemmon Survey MPS 149760
2005 11 01.38373 04 12 40.35 +16 59 43.5 18.8 V G96 – Mt. Lemmon Survey MPS 149760
2005 11 01.39178 04 12 40.06 +16 59 41.6 18.8 V G96 – Mt. Lemmon Survey MPS 149760
2005 11 01.39980 04 12 39.70 +16 59 39.4 18.9 V G96 – Mt. Lemmon Survey MPS 149760
2005 11 01.40678 04 12 39.42 +16 59 37.7 19.6 V 691 – Steward Observatory, Kitt Peak-Spacewatch MPS 147888
2005 11 01.42425 04 12 38.70 +16 59 33.0 19.7 V 691 – Steward Observatory, Kitt Peak-Spacewatch MPS 147888
2005 11 01.44173 04 12 37.97 +16 59 28.2 19.6 V 691 – Steward Observatory, Kitt Peak-Spacewatch MPS 147888
2005 11 06.32225 04 09 10.99 +16 37 26.8 19.1   704 – Lincoln Laboratory ETS, New Mexico MPS 149760
2005 11 06.33530 04 09 10.42 +16 37 22.7 20.1   704 – Lincoln Laboratory ETS, New Mexico MPS 149760
2005 11 06.34759 04 09 09.82 +16 37 20.2 19.7   704 – Lincoln Laboratory ETS, New Mexico MPS 149760
2005 11 06.36019 04 09 09.06 +16 37 16.1 20.1   704 – Lincoln Laboratory ETS, New Mexico MPS 149760
2005 11 06.37255 04 09 08.62 +16 37 13.2 19.6   704 – Lincoln Laboratory ETS, New Mexico MPS 149760
2005 11 09.38834 04 06 46.62 +16 23 15.5 18.6 V 703 – Catalina Sky Survey MPS 149760
2005 11 09.39823 04 06 46.08 +16 23 12.4 18.6 V 703 – Catalina Sky Survey MPS 149760
2005 11 09.40811 04 06 45.57 +16 23 09.8 18.5 V 703 – Catalina Sky Survey MPS 149760
2005 11 26.34487 03 51 47.77 +15 05 29.4 18.5 V 703 – Catalina Sky Survey MPS 152242
2005 11 26.35140 03 51 47.41 +15 05 26.5 18.5 V 703 – Catalina Sky Survey MPS 152242
2005 11 26.35792 03 51 47.08 +15 05 25.6 18.6 V 703 – Catalina Sky Survey MPS 152242
2005 11 26.36443 03 51 46.65 +15 05 23.5 18.3 V 703 – Catalina Sky Survey MPS 152242
2005 11 30.25548 03 48 20.23 +14 49 17.0 19.4   704 – Lincoln Laboratory ETS, New Mexico MPS 152242
2005 11 30.26854 03 48 19.56 +14 49 14.2 19.2   704 – Lincoln Laboratory ETS, New Mexico MPS 152242
2005 11 30.28268 03 48 18.75 +14 49 10.6 19.4   704 – Lincoln Laboratory ETS, New Mexico MPS 152242
2005 11 30.29534 03 48 18.11 +14 49 07.5 19.3   704 – Lincoln Laboratory ETS, New Mexico MPS 152242
2005 11 30.30799 03 48 17.41 +14 49 03.8 19.6   704 – Lincoln Laboratory ETS, New Mexico MPS 152242
2005 12 03.18585 03 45 50.83 +14 37 57.0 19.5   704 – Lincoln Laboratory ETS, New Mexico MPS 153769
2005 12 03.19907 03 45 50.16 +14 37 55.0 19.6   704 – Lincoln Laboratory ETS, New Mexico MPS 153769
2005 12 03.21205 03 45 49.56 +14 37 50.8 19.6   704 – Lincoln Laboratory ETS, New Mexico MPS 153769
2005 12 03.22501 03 45 48.86 +14 37 49.1 19.4   704 – Lincoln Laboratory ETS, New Mexico MPS 153769
2005 12 07.20222 03 42 37.83 +14 23 49.5 19.6   704 – Lincoln Laboratory ETS, New Mexico MPS 153769
2005 12 07.22805 03 42 36.60 +14 23 44.3 20.1   704 – Lincoln Laboratory ETS, New Mexico MPS 153769
2005 12 07.24071 03 42 35.93 +14 23 41.1 20.3   704 – Lincoln Laboratory ETS, New Mexico MPS 153769
2005 12 07.25368 03 42 35.39 +14 23 38.7 20.3   704 – Lincoln Laboratory ETS, New Mexico MPS 153769
2005 12 08.25760 03 41 49.56 +14 20 25.1 18.7 C 704 – Lincoln Laboratory ETS, New Mexico MPS 294428
2005 12 08.27061 03 41 49.28 +14 20 25.4 18.2 C 704 – Lincoln Laboratory ETS, New Mexico MPS 294428
2005 12 08.28358 03 41 48.50 +14 20 19.1 19.2 C 704 – Lincoln Laboratory ETS, New Mexico MPS 294428
2005 12 08.29643 03 41 47.95 +14 20 16.5 18.7 C 704 – Lincoln Laboratory ETS, New Mexico MPS 294428
2005 12 08.30959 03 41 47.32 +14 20 14.5 18.8 C 704 – Lincoln Laboratory ETS, New Mexico MPS 294428
2006 01 28.16490 03 37 53.07 +14 28 10.3 20.3 V G96 – Mt. Lemmon Survey MPS 161830
2006 01 28.17035 03 37 53.29 +14 28 11.3 20.0 V G96 – Mt. Lemmon Survey MPS 161830
2006 01 28.17584 03 37 53.47 +14 28 12.4 20.1 V G96 – Mt. Lemmon Survey MPS 161830
2006 01 28.18133 03 37 53.65 +14 28 13.6 20.6 V G96 – Mt. Lemmon Survey MPS 161830
2007 02 19.36920 11 45 41.14 -02 30 36.0 20.7 V G96 – Mt. Lemmon Survey MPS 200403
2007 02 19.37532 11 45 40.93 -02 30 34.4 20.9 V G96 – Mt. Lemmon Survey MPS 200403
2007 02 19.38154 11 45 40.71 -02 30 32.6 20.6 V G96 – Mt. Lemmon Survey MPS 200403
2007 02 19.38777 11 45 40.46 -02 30 30.9 19.9 V G96 – Mt. Lemmon Survey MPS 200403
2007 02 23.36333 11 43 06.75 -02 11 34.6 21.1 V 691 – Steward Observatory, Kitt Peak-Spacewatch MPS 201535
2007 02 23.37849 11 43 06.16 -02 11 29.2 20.5 V 691 – Steward Observatory, Kitt Peak-Spacewatch MPS 201535
2007 02 23.39366 11 43 05.54 -02 11 24.7 21.0 V 691 – Steward Observatory, Kitt Peak-Spacewatch MPS 201535
2007 03 09.29449 11 32 39.50 -00 50 45.6 19.6 R 926 – Tenagra II Observatory, Nogales MPS 202362
2007 03 09.31391 11 32 38.53 -00 50 38.0 19.9 R 926 – Tenagra II Observatory, Nogales MPS 202362
2007 03 09.33269 11 32 37.60 -00 50 31.0 19.6 R 926 – Tenagra II Observatory, Nogales MPS 202362
2007 03 09.35233 11 32 36.63 -00 50 23.2 19.8 R 926 – Tenagra II Observatory, Nogales MPS 202362
2007 03 13.34344 11 29 24.10 -00 24 31.2 20.0 V G96 – Mt. Lemmon Survey MPS 203099
2007 03 13.35178 11 29 23.67 -00 24 27.9 19.9 V G96 – Mt. Lemmon Survey MPS 203099
2007 03 13.36024 11 29 23.28 -00 24 24.8 19.9 V G96 – Mt. Lemmon Survey MPS 203099
2007 03 13.36859 11 29 22.84 -00 24 21.3 19.9 V G96 – Mt. Lemmon Survey MPS 203099
2007 04 20.17986 11 06 36.93 +03 09 35.5 20.2 V G96 – Mt. Lemmon Survey MPS 208096
2007 04 20.18656 11 06 36.79 +03 09 36.7 20.2 V G96 – Mt. Lemmon Survey MPS 208096
